Flag for Argentina Weather past 2 weeks in Salta, Salta, Argentina

Now
50 °F

Clear.


Feels Like: 48 °F
Forecast: 52 / 79 °F
Wind: 5 mph from West

Location: Salta Aerodrome

Current Time: Aug 1, 2014 at 5:44:08 AM

Latest Report: Aug 1, 2014 at 5:00 AM


Visibility: 10 mi

Pressure: 30.01 "Hg

Humidity: 94%

Dew point: 48 °F

Location of SaltaLocation

Historic Weather in Salta — Graph

°F

Salta temperature yesterday

Maximum temperature yesterday: 81 °F (at 4:00 PM)
Minimum temperature yesterday: 43 °F (at 5:00 AM)
Average temperature yesterday: 60 °F

Past Weeks' High & Low Weather Summary

 TemperatureHumidityPressure
High86 °F (Jul 21, 4:00 PM)100% (Jul 23, 8:00 AM)30.51 "Hg (Jul 23, 8:00 AM)
Low27 °F (Jul 25, 7:00 AM)3% (Jul 30, 1:00 PM)29.74 "Hg (Jul 21, 4:00 PM)
Average51 °F67%30.14 "Hg
* Reported Jul 17 4:00 AM — Aug 1 4:00 AM, Salta, Weather by CustomWeather, © 2014

Note: Actual official high and low records may vary slightly from our data, if they occured in-between our weather recording intervals... More about our weather records

Advertising

Salta weather history for previous 24 hours

 ConditionsComfort  
Time TempWeatherWind HumidityBarometerVisibility
4:00 AM
Aug 1
50 °FClear.3 mph88%30.01 "Hg10 mi
3:00 AM50 °FClear.3 mph88%30.04 "Hg10 mi
2:00 AM52 °FClear.No wind88%30.04 "Hg10 mi
1:00 AM54 °FClear.No wind82%30.04 "Hg10 mi
12:00 AM54 °FClear.2 mph82%30.04 "Hg10 mi
11:00 PM
Jul 31
59 °FClear.No wind72%30.04 "Hg10 mi
10:00 PM61 °FClear.2 mph72%30.01 "Hg10 mi
9:00 PM64 °FClear.6 mph60%29.98 "Hg10 mi
8:00 PM68 °FClear.6 mph56%29.98 "Hg10 mi
7:00 PM72 °FClear.8 mph47%29.95 "Hg10 mi
6:00 PM75 °FClear.12 mph34%29.92 "Hg10 mi
5:00 PM79 °FSunny.7 mph28%29.89 "Hg10 mi
4:00 PM81 °FSunny.5 mph24%29.89 "Hg10 mi
3:00 PM79 °FSunny.2 mph30%29.92 "Hg10 mi
2:00 PM75 °FSunny.2 mph39%29.95 "Hg10 mi
1:00 PM72 °FSunny.3 mph47%29.98 "Hg10 mi
12:00 PM66 °FSunny.6 mph52%30.01 "Hg10 mi
11:00 AM63 °FSunny.2 mph59%30.04 "Hg10 mi
10:00 AM55 °FSunny.1 mph77%30.04 "Hg10 mi
9:00 AM45 °FSunny.2 mph93%30.04 "Hg10 mi
8:00 AM45 °FSunny.1 mph93%30.01 "Hg10 mi
7:00 AM43 °FSunny.No wind93%30.01 "Hg10 mi
6:00 AM43 °FClear.No wind93%30.01 "Hg10 mi
5:00 AM43 °FClear.2 mph87%30.01 "Hg10 mi
Weather by CustomWeather, © 2014

See weather overviewHow to use our weather pages